Content
SEND FEEDBACK

Daily
Averages
Monthly
Summary
United States of America

RUBY, IDAHO


Home > North America > United States > Idaho
Elevation: 4163 feet     Latitude: 42 32N     Longitude: 113 46W

WEATHER
 
SELECT A DAY
Number of Records: 171,252;   Date Range: 1/1/95 - 4/16/14
 
SHARE

PRINT THIS DATA

[ ← Previous Day ]
WEATHER ALMANAC - JANUARY 31, 2013
[ Next Day → ]
[ °C ]   °F
Weather ElementAverageHighLow
Temperature39.1 °F45 °F (2:53 pm)34 °F (7:53 pm)
Dewpoint32.9 °F35.1 °F (3:53 pm)30.9 °F (7:53 pm)
Humidity79.4 %89 % (5:53 am)65 % (2:53 pm)
Barometer30.27 in30.33 in (10:53 am)30.23 in (11:53 pm)
Wind Speed13.6 mph23 mph (2:53 am)
Wind Gust32.2 mph (2:53 am)
Weather ElementAverage
Visibility10 mi
Wind DirectionWSW (246.8 °)

Weather ElementTotal
Precipitation---
Heating Degree Days25.5 (Base 65)
Averaged from 28 records on January 31, 2013
WEATHER CONDITIONS BREAKOUT
WIND DIRECTION BREAKOUT
WEATHER BY HOUR - JANUARY 31, 2013
[ °C ]   °F
Local TimeTemperatureDewpointHumidityBarometerVisibilityWind DirectionWind SpeedGust SpeedPrecipitationEventsConditions
1:53 AM36.0 °F32.0 °F86 %30.24 in10.0 miWSW (250°)17.3 mph26.5 mphClear
2:53 AM36.0 °F32.0 °F86 %30.25 in10.0 miWSW (240°)23.0 mph32.2 mph0.00 inSnowLight Snow
3:53 AM36.0 °F32.0 °F86 %30.26 in10.0 miWSW (240°)17.3 mph24.2 mph0.00 inClear
4:53 AM36.0 °F32.0 °F86 %30.27 in10.0 miWSW (240°)18.4 mph27.6 mphClear
5:53 AM35.1 °F32.0 °F89 %30.27 in10.0 miWSW (250°)20.7 mph25.3 mphClear
6:53 AM35.1 °F32.0 °F89 %30.28 in10.0 miWest (260°)15.0 mph23.0 mphPartly Cloudy
7:53 AM35.1 °F32.0 °F89 %30.31 in10.0 miWSW (250°)11.5 mphPartly Cloudy
8:53 AM36.0 °F32.0 °F86 %30.32 in10.0 miWSW (250°)15.0 mphMostly Cloudy
9:53 AM37.9 °F33.1 °F83 %30.32 in10.0 miWSW (250°)13.8 mphOvercast
10:53 AM39.0 °F33.1 °F79 %30.33 in10.0 miWSW (250°)13.8 mphOvercast
11:53 AM42.1 °F34.0 °F73 %30.32 in10.0 miWSW (250°)13.8 mphOvercast
12:09 PM42.8 °F33.8 °F70 %30.29 in10.0 miWSW (240°)17.3 mph23.0 mphMostly Cloudy
12:53 PM44.1 °F34.0 °F68 %30.29 in10.0 miWSW (250°)15.0 mph25.3 mphMostly Cloudy
1:31 PM44.6 °F33.8 °F66 %30.27 in10.0 miWest (260°)19.6 mph26.5 mphMostly Cloudy
1:39 PM42.8 °F33.8 °F70 %30.27 in10.0 miWest (270°)15.0 mph26.5 mphMostly Cloudy
1:53 PM43.0 °F33.1 °F68 %30.28 in10.0 miWest (260°)13.8 mph21.9 mphOvercast
2:46 PM44.6 °F33.8 °F66 %30.25 in10.0 miWSW (250°)16.1 mph24.2 mphMostly Cloudy
2:53 PM45.0 °F34.0 °F65 %30.25 in10.0 miWest (260°)16.1 mph24.2 mphOvercast
3:16 PM44.6 °F33.8 °F66 %30.25 in10.0 miWest (260°)10.4 mph18.4 mphMostly Cloudy
3:53 PM44.1 °F35.1 °F71 %30.26 in10.0 miWest (260°)11.5 mphOvercast
4:53 PM42.1 °F35.1 °F76 %30.25 in10.0 miWSW (240°)10.4 mphMostly Cloudy
5:53 PM37.9 °F33.1 °F83 %30.26 in10.0 miWSW (250°)8.1 mphClear
6:53 PM36.0 °F33.1 °F89 %30.27 in10.0 miWSW (250°)9.2 mphPartly Cloudy
7:53 PM34.0 °F30.9 °F89 %30.27 in10.0 miSSW (210°)8.1 mphClear
8:53 PM35.1 °F30.9 °F85 %30.27 in10.0 miSW (220°)8.1 mphScattered Clouds
9:53 PM36.0 °F32.0 °F86 %30.25 in10.0 miSW (220°)9.2 mphClear
10:53 PM36.0 °F32.0 °F86 %30.25 in10.0 miWSW (240°)6.9 mphOvercast
11:53 PM37.0 °F33.1 °F86 %30.23 in10.0 miWSW (240°)6.9 mphOvercast
Hourly data recorded from KBYI, located 0.67 miles away from Ruby, Idaho







STORIES FROM OUR PARTNERS